| time (UTC) | temp F | wind direction | speed MPH | gust MPH | rain 1hr in | rain 24hr in | rain mn in | humidity % | barometer mb |
| 20260903211341 | 90 | 97 | 2.0 | 2.0 | 0.00 | 0.00 | 0.00 | 70 | 1016.6 |
| 20260903210839 | 91 | 217 | 6.0 | 7.0 | 0.00 | 0.00 | 0.00 | 68 | 1016.3 |
| 20260903210339 | 90 | 129 | 2.0 | 3.0 | 0.00 | 0.00 | 0.00 | 74 | 1016.3 |
| 20260903205838 | 89 | 136 | 2.0 | 3.0 | 0.00 | 0.00 | 0.00 | 72 | 1016.3 |
| 20260903205339 | 90 | 182 | 2.0 | 3.0 | 0.00 | 0.00 | 0.00 | 73 | 1016.3 |
| 20260903204839 | 90 | 193 | 2.0 | 2.0 | 0.00 | 0.00 | 0.00 | 73 | 1016.3 |
| 20260903204338 | 90 | 279 | 2.0 | 2.0 | 0.00 | 0.00 | 0.00 | 73 | 1016.3 |
| 20260903203839 | 90 | 83 | 2.0 | 2.0 | 0.00 | 0.00 | 0.00 | 73 | 1016.6 |
| 20260903203338 | 90 | 98 | 2.0 | 2.0 | 0.00 | 0.00 | 0.00 | 73 | 1016.6 |
| 20260903202839 | 91 | 249 | 0.0 | 2.0 | 0.00 | 0.00 | 0.00 | 71 | 1016.6 |
| 20260903202339 | 90 | 225 | 2.0 | 3.0 | 0.00 | 0.00 | 0.00 | 71 | 1016.6 |
| 20260903201840 | 90 | 288 | 2.0 | 2.0 | 0.00 | 0.00 | 0.00 | 68 | 1016.6 |
| 20260903201338 | 90 | 225 | 2.0 | 3.0 | 0.00 | 0.00 | 0.00 | 68 | 1016.9 |
| 20260903200841 | 91 | 337 | 0.0 | 0.0 | 0.00 | 0.00 | 0.00 | 66 | 1016.9 |
| 20260903200339 | 91 | 249 | 3.0 | 3.0 | 0.00 | 0.00 | 0.00 | 69 | 1016.9 |
| 20260903195839 | 91 | 113 | 2.0 | 3.0 | 0.00 | 0.00 | 0.00 | 70 | 1016.9 |
| 20260903195339 | 90 | 249 | 2.0 | 3.0 | 0.00 | 0.00 | 0.00 | 66 | 1016.9 |
| 20260903194839 | 91 | 337 | 0.0 | 5.0 | 0.00 | 0.00 | 0.00 | 69 | 1016.9 |
| 20260903194338 | 92 | 208 | 5.0 | 5.0 | 0.00 | 0.00 | 0.00 | 64 | 1016.9 |
| 20260903193838 | 90 | 220 | 2.0 | 2.0 | 0.00 | 0.00 | 0.00 | 67 | 1016.9 |
| 20260903193339 | 91 | 275 | 2.0 | 2.0 | 0.00 | 0.00 | 0.00 | 72 | 1016.9 |
| 20260903192838 | 91 | 235 | 2.0 | 2.0 | 0.00 | 0.00 | 0.00 | 70 | 1017.3 |
| 20260903192338 | 90 | 72 | 0.0 | 2.0 | 0.00 | 0.00 | 0.00 | 69 | 1017.3 |
| 20260903191839 | 92 | 38 | 2.0 | 3.0 | 0.00 | 0.00 | 0.00 | 67 | 1017.3 |
| 20260903191339 | 91 | 176 | 2.0 | 2.0 | 0.00 | 0.00 | 0.00 | 68 | 1017.3 |
| 20260903190841 | 91 | 266 | 2.0 | 2.0 | 0.00 | 0.00 | 0.00 | 67 | 1017.3 |
| 20260903190339 | 91 | 143 | 0.0 | 2.0 | 0.00 | 0.00 | 0.00 | 69 | 1017.3 |
| 20260903185839 | 92 | 189 | 2.0 | 5.0 | 0.00 | 0.00 | 0.00 | 68 | 1017.3 |
| 20260903185339 | 93 | 193 | 6.0 | 7.0 | 0.00 | 0.00 | 0.00 | 70 | 1017.3 |
| 20260903184840 | 93 | 214 | 3.0 | 7.0 | 0.00 | 0.00 | 0.00 | 71 | 1017.3 |
| 20260903184340 | 92 | 79 | 2.0 | 2.0 | 0.00 | 0.00 | 0.00 | 72 | 1017.6 |
| 20260903183838 | 92 | 226 | 3.0 | 3.0 | 0.00 | 0.00 | 0.00 | 71 | 1017.6 |
| 20260903183340 | 92 | 181 | 2.0 | 3.0 | 0.00 | 0.00 | 0.00 | 72 | 1017.6 |
| 20260903182839 | 91 | 131 | 2.0 | 3.0 | 0.00 | 0.00 | 0.00 | 73 | 1017.6 |
| 20260903182339 | 92 | 257 | 3.0 | 3.0 | 0.00 | 0.00 | 0.00 | 73 | 1017.6 |
| 20260903181839 | 91 | 279 | 2.0 | 2.0 | 0.00 | 0.00 | 0.00 | 73 | 1017.6 |
| 20260903181338 | 91 | 124 | 2.0 | 3.0 | 0.00 | 0.00 | 0.00 | 72 | 1017.6 |
| 20260903180840 | 91 | 58 | 2.0 | 3.0 | 0.00 | 0.00 | 0.00 | 72 | 1017.9 |
| 20260903180338 | 91 | 336 | 2.0 | 2.0 | 0.00 | 0.00 | 0.00 | 74 | 1017.9 |
| 20260903175840 | 91 | 231 | 3.0 | 3.0 | 0.00 | 0.00 | 0.00 | 72 | 1017.6 |
| 20260903175339 | 91 | 127 | 3.0 | 3.0 | 0.00 | 0.00 | 0.00 | 73 | 1017.6 |
| 20260903174839 | 91 | 295 | 0.0 | 0.0 | 0.00 | 0.00 | 0.00 | 74 | 1017.9 |
| 20260903174338 | 91 | 275 | 0.0 | 2.0 | 0.00 | 0.00 | 0.00 | 73 | 1017.6 |
| 20260903173838 | 91 | 202 | 2.0 | 3.0 | 0.00 | 0.00 | 0.00 | 75 | 1017.6 |
| 20260903173339 | 91 | 119 | 3.0 | 5.0 | 0.00 | 0.00 | 0.00 | 74 | 1017.6 |
| 20260903172838 | 90 | 130 | 2.0 | 3.0 | 0.00 | 0.00 | 0.00 | 76 | 1017.9 |
| 20260903172338 | 91 | 228 | 3.0 | 5.0 | 0.00 | 0.00 | 0.00 | 76 | 1017.9 |
| 20260903171838 | 92 | 233 | 2.0 | 2.0 | 0.00 | 0.00 | 0.00 | 73 | 1017.9 |
| 20260903171338 | 92 | 236 | 5.0 | 7.0 | 0.00 | 0.00 | 0.00 | 73 | 1017.9 |
| 20260903170839 | 91 | 273 | 3.0 | 5.0 | 0.00 | 0.00 | 0.00 | 74 | 1017.9 |
| 20260903170340 | 90 | 84 | 2.0 | 3.0 | 0.00 | 0.00 | 0.00 | 74 | 1017.9 |
| 20260903165839 | 90 | 284 | 2.0 | 2.0 | 0.00 | 0.00 | 0.00 | 74 | 1017.9 |
| 20260903165338 | 89 | 138 | 0.0 | 2.0 | 0.00 | 0.00 | 0.00 | 77 | 1018.3 |
| 20260903164838 | 89 | 256 | 0.0 | 2.0 | 0.00 | 0.00 | 0.00 | 75 | 1018.3 |
| 20260903164338 | 90 | 240 | 2.0 | 2.0 | 0.00 | 0.00 | 0.00 | 74 | 1018.3 |
| 20260903163839 | 90 | 33 | 0.0 | 2.0 | 0.00 | 0.00 | 0.00 | 73 | 1018.3 |
| 20260903163338 | 90 | 221 | 3.0 | 3.0 | 0.00 | 0.00 | 0.00 | 75 | 1018.3 |
| 20260903162839 | 90 | 223 | 2.0 | 3.0 | 0.00 | 0.00 | 0.00 | 75 | 1018.3 |
| 20260903162339 | 90 | 242 | 5.0 | 5.0 | 0.00 | 0.00 | 0.00 | 75 | 1018.3 |
| 20260903161839 | 89 | 267 | 2.0 | 5.0 | 0.00 | 0.00 | 0.00 | 75 | 1018.3 |
| 20260903161339 | 89 | 62 | 3.0 | 3.0 | 0.00 | 0.00 | 0.00 | 74 | 1018.3 |
| 20260903160839 | 89 | 253 | 2.0 | 3.0 | 0.00 | 0.00 | 0.00 | 74 | 1018.6 |
| 20260903160339 | 89 | 287 | 0.0 | 2.0 | 0.00 | 0.00 | 0.00 | 76 | 1018.3 |
| 20260903155838 | 89 | 120 | 2.0 | 2.0 | 0.00 | 0.00 | 0.00 | 77 | 1018.6 |
| 20260903155339 | 88 | 74 | 2.0 | 2.0 | 0.00 | 0.00 | 0.00 | 75 | 1018.6 |
| 20260903154838 | 88 | 323 | 2.0 | 2.0 | 0.00 | 0.00 | 0.00 | 76 | 1018.6 |
| 20260903154338 | 88 | 227 | 3.0 | 3.0 | 0.00 | 0.00 | 0.00 | 76 | 1018.6 |
| 20260903153839 | 88 | 86 | 2.0 | 2.0 | 0.00 | 0.00 | 0.00 | 76 | 1018.6 |
| 20260903153338 | 88 | 240 | 5.0 | 5.0 | 0.00 | 0.00 | 0.00 | 79 | 1018.6 |
| 20260903152839 | 87 | 241 | 3.0 | 3.0 | 0.00 | 0.00 | 0.00 | 78 | 1019.0 |
| 20260903152339 | 88 | 340 | 0.0 | 2.0 | 0.00 | 0.00 | 0.00 | 76 | 1018.6 |
| 20260903151838 | 87 | 270 | 2.0 | 3.0 | 0.00 | 0.00 | 0.00 | 78 | 1018.6 |
| 20260903151339 | 87 | 124 | 3.0 | 3.0 | 0.00 | 0.00 | 0.00 | 79 | 1018.6 |
| 20260903150839 | 87 | 210 | 3.0 | 5.0 | 0.00 | 0.00 | 0.00 | 78 | 1018.6 |
| 20260903150339 | 87 | 267 | 2.0 | 3.0 | 0.00 | 0.00 | 0.00 | 77 | 1018.6 |
| 20260903145839 | 86 | 211 | 5.0 | 5.0 | 0.00 | 0.00 | 0.00 | 76 | 1018.6 |
| 20260903145339 | 86 | 325 | 0.0 | 0.0 | 0.00 | 0.00 | 0.00 | 79 | 1018.6 |
| 20260903144839 | 86 | 246 | 2.0 | 2.0 | 0.00 | 0.00 | 0.00 | 77 | 1018.6 |
| 20260903144338 | 86 | 258 | 5.0 | 5.0 | 0.00 | 0.00 | 0.00 | 76 | 1018.6 |
| 20260903143839 | 85 | 224 | 3.0 | 3.0 | 0.00 | 0.00 | 0.00 | 77 | 1018.6 |
| 20260903143339 | 85 | 261 | 2.0 | 3.0 | 0.00 | 0.00 | 0.00 | 78 | 1018.6 |
| 20260903142839 | 85 | 269 | 3.0 | 3.0 | 0.00 | 0.00 | 0.00 | 80 | 1018.6 |
| 20260903142341 | 85 | 234 | 2.0 | 3.0 | 0.00 | 0.00 | 0.00 | 78 | 1018.6 |
| 20260903141844 | 84 | 244 | 3.0 | 7.0 | 0.00 | 0.00 | 0.00 | 77 | 1018.6 |
| 20260903141338 | 84 | 225 | 3.0 | 5.0 | 0.00 | 0.00 | 0.00 | 77 | 1018.6 |
| 20260903140839 | 84 | 237 | 5.0 | 5.0 | 0.00 | 0.00 | 0.00 | 79 | 1018.6 |
| 20260903140339 | 84 | 239 | 5.0 | 5.0 | 0.00 | 0.00 | 0.00 | 80 | 1018.6 |
| 20260903135841 | 84 | 240 | 3.0 | 3.0 | 0.00 | 0.00 | 0.00 | 84 | 1018.6 |
| 20260903135339 | 83 | 235 | 6.0 | 7.0 | 0.00 | 0.00 | 0.00 | 84 | 1018.3 |
| 20260903134839 | 83 | 210 | 2.0 | 3.0 | 0.00 | 0.00 | 0.00 | 84 | 1018.6 |
| 20260903134338 | 83 | 198 | 2.0 | 2.0 | 0.00 | 0.00 | 0.00 | 85 | 1018.6 |
| 20260903133840 | 83 | 237 | 2.0 | 3.0 | 0.00 | 0.00 | 0.00 | 87 | 1018.6 |
| 20260903133339 | 83 | 227 | 3.0 | 3.0 | 0.00 | 0.00 | 0.00 | 87 | 1018.3 |
| 20260903132838 | 82 | 266 | 2.0 | 7.0 | 0.00 | 0.00 | 0.00 | 89 | 1018.6 |
| 20260903132339 | 81 | 234 | 3.0 | 5.0 | 0.00 | 0.00 | 0.00 | 89 | 1018.6 |
| 20260903131838 | 81 | 204 | 3.0 | 3.0 | 0.00 | 0.00 | 0.00 | 92 | 1018.6 |
| 20260903131338 | 81 | 225 | 2.0 | 2.0 | 0.00 | 0.00 | 0.00 | 93 | 1018.6 |
| 20260903130840 | 81 | 219 | 5.0 | 5.0 | 0.00 | 0.00 | 0.00 | 94 | 1018.6 |
| 20260903130339 | 81 | 279 | 3.0 | 3.0 | 0.00 | 0.00 | 0.00 | 95 | 1018.6 |
| 20260903125838 | 80 | 259 | 5.0 | 5.0 | 0.00 | 0.00 | 0.00 | 96 | 1019.0 |
| 20260903125339 | 80 | 221 | 3.0 | 3.0 | 0.00 | 0.00 | 0.00 | 97 | 1019.0 |
| 20260903124840 | 79 | 221 | 3.0 | 5.0 | 0.00 | 0.00 | 0.00 | 98 | 1018.6 |
| 20260903124341 | 79 | 226 | 2.0 | 3.0 | 0.00 | 0.00 | 0.00 | 99 | 1018.6 |
| 20260903123839 | 79 | 227 | 2.0 | 2.0 | 0.00 | 0.00 | 0.00 | 99 | 1018.6 |
| 20260903123339 | 78 | 226 | 3.0 | 3.0 | 0.00 | 0.00 | 0.00 | 99 | 1018.6 |
| 20260903122839 | 78 | 227 | 3.0 | 3.0 | 0.00 | 0.00 | 0.00 | 100 | 1018.6 |
| 20260903122338 | 78 | 227 | 3.0 | 3.0 | 0.00 | 0.00 | 0.00 | 100 | 1018.6 |
| 20260903121838 | 78 | 254 | 2.0 | 2.0 | 0.00 | 0.00 | 0.00 | 100 | 1018.6 |
| 20260903121338 | 78 | 228 | 0.0 | 2.0 | 0.00 | 0.00 | 0.00 | 100 | 1018.6 |
| 20260903120838 | 78 | 237 | 2.0 | 2.0 | 0.00 | 0.00 | 0.00 | 100 | 1018.6 |
| 20260903120338 | 77 | 259 | 0.0 | 2.0 | 0.00 | 0.00 | 0.00 | 100 | 1018.6 |
| 20260903115839 | 77 | 281 | 2.0 | 2.0 | 0.00 | 0.00 | 0.00 | 100 | 1018.6 |
| 20260903115338 | 77 | 248 | 3.0 | 3.0 | 0.00 | 0.00 | 0.00 | 100 | 1018.6 |
| 20260903114839 | 77 | 249 | 2.0 | 2.0 | 0.00 | 0.00 | 0.00 | 100 | 1018.6 |
| 20260903114340 | 77 | 253 | 2.0 | 2.0 | 0.00 | 0.00 | 0.00 | 100 | 1018.6 |
| 20260903113838 | 76 | 274 | 0.0 | 0.0 | 0.00 | 0.00 | 0.00 | 100 | 1018.3 |
| 20260903113338 | 76 | 273 | 0.0 | 0.0 | 0.00 | 0.00 | 0.00 | 100 | 1018.3 |
| 20260903112839 | 76 | 277 | 0.0 | 0.0 | 0.00 | 0.00 | 0.00 | 100 | 1018.3 |
| 20260903112338 | 76 | 270 | 0.0 | 0.0 | 0.00 | 0.00 | 0.00 | 100 | 1018.3 |
| 20260903111838 | 76 | 250 | 0.0 | 2.0 | 0.00 | 0.00 | 0.00 | 100 | 1018.3 |
| 20260903111338 | 76 | 292 | 2.0 | 2.0 | 0.00 | 0.00 | 0.00 | 100 | 1018.3 |
| 20260903110838 | 76 | 267 | 0.0 | 0.0 | 0.00 | 0.00 | 0.00 | 100 | 1018.3 |
| 20260903110339 | 76 | 296 | 0.0 | 0.0 | 0.00 | 0.00 | 0.00 | 100 | 1018.3 |
| 20260903105838 | 76 | 298 | 0.0 | 0.0 | 0.00 | 0.00 | 0.00 | 100 | 1017.9 |
| 20260903105339 | 76 | 298 | 0.0 | 0.0 | 0.00 | 0.00 | 0.00 | 100 | 1017.9 |
| 20260903104839 | 76 | 297 | 0.0 | 0.0 | 0.00 | 0.00 | 0.00 | 100 | 1017.9 |
| 20260903104338 | 76 | 298 | 0.0 | 0.0 | 0.00 | 0.00 | 0.00 | 100 | 1017.9 |
| 20260903103838 | 76 | 298 | 0.0 | 0.0 | 0.00 | 0.00 | 0.00 | 100 | 1017.9 |
| 20260903103339 | 76 | 291 | 0.0 | 0.0 | 0.00 | 0.00 | 0.00 | 100 | 1017.9 |
| 20260903102838 | 76 | 291 | 0.0 | 0.0 | 0.00 | 0.00 | 0.00 | 100 | 1017.9 |
| 20260903102338 | 76 | 291 | 0.0 | 0.0 | 0.00 | 0.00 | 0.00 | 100 | 1017.9 |
| 20260903101838 | 76 | 291 | 0.0 | 0.0 | 0.00 | 0.00 | 0.00 | 100 | 1017.9 |
| 20260903101338 | 76 | 290 | 0.0 | 0.0 | 0.00 | 0.00 | 0.00 | 100 | 1017.9 |
| 20260903100838 | 76 | 290 | 0.0 | 0.0 | 0.00 | 0.00 | 0.00 | 100 | 1017.9 |
| 20260903100338 | 76 | 289 | 0.0 | 0.0 | 0.00 | 0.00 | 0.00 | 100 | 1017.6 |
| 20260903095838 | 76 | 289 | 0.0 | 0.0 | 0.00 | 0.00 | 0.00 | 100 | 1017.6 |
| 20260903095339 | 76 | 289 | 0.0 | 0.0 | 0.00 | 0.00 | 0.00 | 100 | 1017.6 |
| 20260903094840 | 76 | 256 | 0.0 | 0.0 | 0.00 | 0.00 | 0.00 | 100 | 1017.6 |
| 20260903094339 | 77 | 252 | 0.0 | 2.0 | 0.00 | 0.00 | 0.00 | 100 | 1017.6 |
| 20260903093838 | 76 | 255 | 2.0 | 2.0 | 0.00 | 0.00 | 0.00 | 100 | 1017.6 |
| 20260903093338 | 76 | 269 | 2.0 | 2.0 | 0.00 | 0.00 | 0.00 | 100 | 1017.6 |
| 20260903092838 | 76 | 288 | 0.0 | 0.0 | 0.00 | 0.00 | 0.00 | 100 | 1017.6 |
| 20260903092338 | 76 | 295 | 0.0 | 0.0 | 0.00 | 0.00 | 0.00 | 100 | 1017.3 |
| 20260903091840 | 76 | 294 | 0.0 | 0.0 | 0.00 | 0.00 | 0.00 | 100 | 1017.3 |
| 20260903091340 | 76 | 297 | 0.0 | 0.0 | 0.00 | 0.00 | 0.00 | 100 | 1017.3 |
| 20260903090839 | 76 | 296 | 0.0 | 0.0 | 0.00 | 0.00 | 0.00 | 100 | 1017.3 |
| 20260903090338 | 77 | 295 | 0.0 | 0.0 | 0.00 | 0.00 | 0.00 | 100 | 1017.3 |
| 20260903085838 | 76 | 296 | 0.0 | 0.0 | 0.00 | 0.00 | 0.00 | 100 | 1017.3 |
| 20260903085338 | 77 | 295 | 0.0 | 0.0 | 0.00 | 0.00 | 0.00 | 100 | 1017.3 |
| 20260903084838 | 77 | 295 | 0.0 | 0.0 | 0.00 | 0.00 | 0.00 | 100 | 1017.3 |
| 20260903084338 | 77 | 292 | 0.0 | 0.0 | 0.00 | 0.00 | 0.00 | 100 | 1017.3 |
| 20260903083838 | 77 | 295 | 0.0 | 0.0 | 0.00 | 0.00 | 0.00 | 100 | 1017.3 |
| 20260903083340 | 77 | 295 | 0.0 | 0.0 | 0.00 | 0.00 | 0.00 | 100 | 1017.3 |
| 20260903082839 | 77 | 295 | 0.0 | 0.0 | 0.00 | 0.00 | 0.00 | 100 | 1017.3 |
| 20260903082339 | 77 | 295 | 0.0 | 0.0 | 0.00 | 0.00 | 0.00 | 100 | 1017.3 |
| 20260903081838 | 77 | 295 | 0.0 | 0.0 | 0.00 | 0.00 | 0.00 | 100 | 1017.3 |
| 20260903081338 | 77 | 295 | 0.0 | 0.0 | 0.00 | 0.00 | 0.00 | 100 | 1017.3 |
| 20260903080839 | 77 | 295 | 0.0 | 0.0 | 0.00 | 0.00 | 0.00 | 100 | 1017.3 |
| 20260903080338 | 77 | 296 | 0.0 | 0.0 | 0.00 | 0.00 | 0.00 | 100 | 1017.3 |
| 20260903075839 | 77 | 284 | 0.0 | 0.0 | 0.00 | 0.00 | 0.00 | 100 | 1017.3 |
| 20260903075338 | 77 | 279 | 0.0 | 0.0 | 0.00 | 0.00 | 0.00 | 100 | 1017.3 |
| 20260903074839 | 77 | 279 | 0.0 | 0.0 | 0.00 | 0.00 | 0.00 | 100 | 1017.3 |
| 20260903074338 | 77 | 281 | 0.0 | 0.0 | 0.00 | 0.00 | 0.00 | 100 | 1017.3 |
| 20260903073838 | 77 | 280 | 0.0 | 0.0 | 0.00 | 0.00 | 0.00 | 100 | 1016.9 |
| 20260903073338 | 77 | 261 | 0.0 | 2.0 | 0.00 | 0.00 | 0.00 | 100 | 1016.9 |
| 20260903072838 | 77 | 282 | 0.0 | 0.0 | 0.00 | 0.00 | 0.00 | 100 | 1016.9 |
| 20260903072338 | 77 | 292 | 0.0 | 0.0 | 0.00 | 0.00 | 0.00 | 100 | 1016.9 |
| 20260903071838 | 77 | 292 | 0.0 | 0.0 | 0.00 | 0.00 | 0.00 | 100 | 1016.9 |
| 20260903071339 | 77 | 292 | 0.0 | 0.0 | 0.00 | 0.00 | 0.00 | 100 | 1016.9 |
| 20260903070841 | 77 | 292 | 0.0 | 0.0 | 0.00 | 0.00 | 0.00 | 100 | 1016.9 |
| 20260903070339 | 77 | 293 | 0.0 | 0.0 | 0.00 | 0.00 | 0.00 | 100 | 1016.9 |
| 20260903065838 | 77 | 287 | 0.0 | 0.0 | 0.00 | 0.00 | 0.00 | 100 | 1016.9 |
| 20260903065339 | 77 | 289 | 0.0 | 0.0 | 0.00 | 0.00 | 0.00 | 100 | 1016.9 |
| 20260903064838 | 78 | 286 | 0.0 | 0.0 | 0.00 | 0.00 | 0.00 | 100 | 1016.9 |
| 20260903064339 | 78 | 284 | 0.0 | 0.0 | 0.00 | 0.00 | 0.00 | 100 | 1016.9 |
| 20260903063839 | 78 | 285 | 0.0 | 0.0 | 0.00 | 0.00 | 0.00 | 99 | 1016.9 |
| 20260903063339 | 78 | 326 | 0.0 | 0.0 | 0.00 | 0.00 | 0.00 | 99 | 1017.3 |
| 20260903062839 | 78 | 324 | 0.0 | 2.0 | 0.00 | 0.00 | 0.00 | 99 | 1016.9 |
| 20260903062338 | 78 | 334 | 0.0 | 0.0 | 0.00 | 0.00 | 0.00 | 99 | 1017.3 |
| 20260903061839 | 78 | 338 | 0.0 | 0.0 | 0.00 | 0.00 | 0.00 | 99 | 1016.9 |
| 20260903061340 | 78 | 320 | 0.0 | 0.0 | 0.00 | 0.00 | 0.00 | 99 | 1016.9 |
| 20260903060841 | 78 | 317 | 0.0 | 0.0 | 0.00 | 0.00 | 0.00 | 99 | 1016.9 |
| 20260903060339 | 78 | 302 | 0.0 | 0.0 | 0.00 | 0.00 | 0.00 | 99 | 1016.9 |
| 20260903055839 | 78 | 308 | 0.0 | 0.0 | 0.00 | 0.00 | 0.00 | 99 | 1017.3 |
| 20260903055338 | 78 | 309 | 0.0 | 0.0 | 0.00 | 0.00 | 0.00 | 99 | 1017.3 |
| 20260903054838 | 78 | 294 | 0.0 | 0.0 | 0.00 | 0.00 | 0.00 | 99 | 1017.3 |
| 20260903054338 | 78 | 294 | 0.0 | 0.0 | 0.00 | 0.00 | 0.00 | 99 | 1016.9 |
| 20260903053839 | 78 | 292 | 0.0 | 0.0 | 0.00 | 0.00 | 0.00 | 99 | 1016.9 |
| 20260903053338 | 78 | 322 | 0.0 | 0.0 | 0.00 | 0.00 | 0.00 | 99 | 1016.9 |
| 20260903052839 | 78 | 284 | 0.0 | 0.0 | 0.00 | 0.00 | 0.00 | 99 | 1016.9 |
| 20260903052340 | 78 | 289 | 0.0 | 2.0 | 0.00 | 0.00 | 0.00 | 98 | 1016.9 |
| 20260903051838 | 78 | 322 | 0.0 | 0.0 | 0.00 | 0.00 | 0.00 | 98 | 1016.9 |
| 20260903051339 | 79 | 327 | 0.0 | 0.0 | 0.00 | 0.00 | 0.00 | 98 | 1017.3 |
| 20260903050838 | 79 | 328 | 0.0 | 0.0 | 0.00 | 0.00 | 0.00 | 98 | 1017.3 |
| 20260903050339 | 79 | 328 | 0.0 | 0.0 | 0.00 | 0.00 | 0.00 | 98 | 1017.3 |
| 20260903045839 | 79 | 286 | 0.0 | 0.0 | 0.00 | 0.00 | 0.00 | 98 | 1017.3 |
| 20260903045340 | 79 | 280 | 0.0 | 0.0 | 0.00 | 0.00 | 0.00 | 98 | 1017.3 |
| 20260903044838 | 79 | 270 | 0.0 | 0.0 | 0.00 | 0.00 | 0.00 | 97 | 1017.3 |
| 20260903044338 | 79 | 266 | 0.0 | 0.0 | 0.00 | 0.00 | 0.00 | 97 | 1017.3 |
| 20260903043838 | 79 | 263 | 0.0 | 0.0 | 0.00 | 0.00 | 0.00 | 97 | 1017.6 |
| 20260903043339 | 79 | 257 | 2.0 | 2.0 | 0.00 | 0.00 | 0.00 | 97 | 1017.6 |
| 20260903042838 | 79 | 329 | 0.0 | 0.0 | 0.00 | 0.00 | 0.00 | 97 | 1017.6 |
| 20260903042340 | 79 | 332 | 0.0 | 0.0 | 0.00 | 0.00 | 0.00 | 97 | 1017.6 |
| 20260903041839 | 79 | 290 | 0.0 | 0.0 | 0.00 | 0.00 | 0.00 | 97 | 1017.6 |
| 20260903041338 | 79 | 264 | 0.0 | 0.0 | 0.00 | 0.00 | 0.00 | 96 | 1017.6 |
| 20260903040838 | 80 | 288 | 0.0 | 0.0 | 0.00 | 0.00 | 0.00 | 96 | 1017.6 |
| 20260903040339 | 80 | 296 | 0.0 | 0.0 | 0.00 | 0.00 | 0.00 | 96 | 1017.6 |
| 20260903035838 | 80 | 286 | 0.0 | 0.0 | 0.00 | 0.00 | 0.00 | 96 | 1017.9 |
| 20260903035339 | 80 | 260 | 2.0 | 2.0 | 0.00 | 0.00 | 0.00 | 96 | 1017.6 |
| 20260903034839 | 80 | 285 | 2.0 | 2.0 | 0.00 | 0.00 | 0.00 | 96 | 1017.6 |
| 20260903034339 | 80 | 259 | 2.0 | 2.0 | 0.00 | 0.00 | 0.00 | 96 | 1017.6 |
| 20260903033838 | 80 | 260 | 2.0 | 2.0 | 0.00 | 0.00 | 0.00 | 96 | 1017.6 |
| 20260903033338 | 80 | 252 | 2.0 | 3.0 | 0.00 | 0.00 | 0.00 | 96 | 1017.6 |
| 20260903032838 | 80 | 235 | 2.0 | 2.0 | 0.00 | 0.00 | 0.00 | 96 | 1017.6 |
| 20260903032338 | 80 | 238 | 0.0 | 2.0 | 0.00 | 0.00 | 0.00 | 96 | 1017.6 |
| 20260903031839 | 80 | 251 | 2.0 | 2.0 | 0.00 | 0.00 | 0.00 | 96 | 1017.6 |
| 20260903031339 | 80 | 233 | 2.0 | 2.0 | 0.00 | 0.00 | 0.00 | 96 | 1017.6 |
| 20260903030839 | 80 | 257 | 0.0 | 0.0 | 0.00 | 0.00 | 0.00 | 96 | 1017.6 |
| 20260903030338 | 80 | 225 | 2.0 | 2.0 | 0.00 | 0.00 | 0.00 | 95 | 1017.6 |
| 20260903025838 | 80 | 247 | 2.0 | 2.0 | 0.00 | 0.00 | 0.00 | 95 | 1017.3 |
| 20260903025338 | 80 | 257 | 0.0 | 0.0 | 0.00 | 0.00 | 0.00 | 95 | 1017.3 |
| 20260903024839 | 80 | 248 | 0.0 | 2.0 | 0.00 | 0.00 | 0.00 | 95 | 1017.3 |
| 20260903024340 | 80 | 250 | 0.0 | 2.0 | 0.00 | 0.00 | 0.00 | 94 | 1017.6 |
| 20260903023838 | 81 | 281 | 0.0 | 0.0 | 0.00 | 0.00 | 0.00 | 94 | 1017.6 |
| 20260903023339 | 81 | 245 | 2.0 | 2.0 | 0.00 | 0.00 | 0.00 | 94 | 1017.3 |
| 20260903022839 | 81 | 265 | 2.0 | 2.0 | 0.00 | 0.00 | 0.00 | 94 | 1017.3 |
| 20260903022339 | 81 | 236 | 3.0 | 3.0 | 0.00 | 0.00 | 0.00 | 94 | 1017.6 |
| 20260903021838 | 81 | 235 | 2.0 | 2.0 | 0.00 | 0.00 | 0.00 | 94 | 1017.6 |
| 20260903021339 | 81 | 210 | 3.0 | 3.0 | 0.00 | 0.00 | 0.00 | 93 | 1017.6 |
| 20260903020839 | 81 | 212 | 3.0 | 3.0 | 0.00 | 0.00 | 0.00 | 93 | 1017.6 |
| 20260903020339 | 81 | 242 | 5.0 | 5.0 | 0.00 | 0.00 | 0.00 | 93 | 1017.6 |
| 20260903015838 | 81 | 244 | 3.0 | 3.0 | 0.00 | 0.00 | 0.00 | 93 | 1017.6 |
| 20260903015339 | 81 | 224 | 2.0 | 2.0 | 0.00 | 0.00 | 0.00 | 93 | 1017.6 |
| 20260903014838 | 81 | 279 | 0.0 | 2.0 | 0.00 | 0.00 | 0.00 | 92 | 1017.9 |
| 20260903014341 | 82 | 278 | 0.0 | 0.0 | 0.00 | 0.00 | 0.00 | 92 | 1017.9 |
| 20260903013839 | 82 | 233 | 2.0 | 2.0 | 0.00 | 0.00 | 0.00 | 92 | 1017.6 |
| 20260903013339 | 82 | 233 | 2.0 | 3.0 | 0.00 | 0.00 | 0.00 | 92 | 1017.6 |
| 20260903012839 | 82 | 277 | 0.0 | 0.0 | 0.00 | 0.00 | 0.00 | 91 | 1017.9 |
| 20260903012338 | 82 | 269 | 0.0 | 2.0 | 0.00 | 0.00 | 0.00 | 90 | 1017.6 |
| 20260903011839 | 82 | 306 | 0.0 | 0.0 | 0.00 | 0.00 | 0.00 | 90 | 1017.9 |
| 20260903011338 | 82 | 345 | 0.0 | 0.0 | 0.00 | 0.00 | 0.00 | 89 | 1017.9 |
| 20260903010839 | 82 | 36 | 3.0 | 3.0 | 0.00 | 0.00 | 0.00 | 89 | 1017.9 |
| 20260903010340 | 82 | 356 | 0.0 | 0.0 | 0.00 | 0.00 | 0.00 | 89 | 1017.6 |
| 20260903005838 | 83 | 285 | 0.0 | 0.0 | 0.00 | 0.00 | 0.00 | 88 | 1017.6 |
| 20260903005338 | 83 | 219 | 3.0 | 3.0 | 0.00 | 0.00 | 0.00 | 88 | 1017.6 |
| 20260903004839 | 83 | 233 | 5.0 | 5.0 | 0.00 | 0.00 | 0.00 | 88 | 1017.6 |
| 20260903004339 | 83 | 219 | 3.0 | 3.0 | 0.00 | 0.00 | 0.00 | 87 | 1017.3 |
| 20260903003838 | 83 | 278 | 0.0 | 0.0 | 0.00 | 0.00 | 0.00 | 87 | 1017.3 |
| 20260903003339 | 83 | 213 | 2.0 | 3.0 | 0.00 | 0.00 | 0.00 | 86 | 1017.3 |
| 20260903002840 | 83 | 239 | 2.0 | 2.0 | 0.00 | 0.00 | 0.00 | 86 | 1017.3 |
| 20260903002338 | 83 | 283 | 0.0 | 2.0 | 0.00 | 0.00 | 0.00 | 85 | 1017.6 |
| 20260903001838 | 83 | 274 | 0.0 | 3.0 | 0.00 | 0.00 | 0.00 | 85 | 1017.6 |
| 20260903001338 | 83 | 239 | 2.0 | 3.0 | 0.00 | 0.00 | 0.00 | 85 | 1017.6 |
| 20260903000839 | 83 | 234 | 2.0 | 2.0 | 0.00 | 0.00 | 0.00 | 86 | 1017.6 |
| 20260903000340 | 83 | 323 | 0.0 | 2.0 | 0.00 | 0.00 | 0.00 | 85 | 1017.6 |
| 20260902235838 | 84 | 271 | 0.0 | 0.0 | 0.00 | 0.00 | 0.00 | 85 | 1017.3 |
| 20260902235338 | 84 | 178 | 2.0 | 3.0 | 0.00 | 0.00 | 0.00 | 85 | 1017.3 |
| 20260902234839 | 84 | 220 | 5.0 | 5.0 | 0.00 | 0.00 | 0.00 | 84 | 1017.3 |
| 20260902234339 | 84 | 332 | 0.0 | 2.0 | 0.00 | 0.00 | 0.00 | 85 | 1017.3 |
| 20260902233838 | 85 | 5 | 0.0 | 2.0 | 0.00 | 0.00 | 0.00 | 85 | 1017.3 |
| 20260902233338 | 85 | 248 | 0.0 | 2.0 | 0.00 | 0.00 | 0.00 | 85 | 1017.3 |
| 20260902232839 | 85 | 258 | 0.0 | 0.0 | 0.00 | 0.00 | 0.00 | 84 | 1017.3 |
| 20260902232340 | 85 | 143 | 2.0 | 2.0 | 0.00 | 0.00 | 0.00 | 84 | 1017.3 |
| 20260902231839 | 86 | 265 | 0.0 | 0.0 | 0.00 | 0.00 | 0.00 | 84 | 1016.9 |
| 20260902231339 | 86 | 259 | 2.0 | 2.0 | 0.00 | 0.00 | 0.00 | 83 | 1016.9 |
| 20260902230838 | 86 | 227 | 2.0 | 3.0 | 0.00 | 0.00 | 0.00 | 83 | 1016.9 |
| 20260902230339 | 86 | 254 | 3.0 | 5.0 | 0.00 | 0.00 | 0.00 | 83 | 1016.9 |
| 20260902225839 | 87 | 343 | 0.0 | 0.0 | 0.00 | 0.00 | 0.00 | 82 | 1016.9 |
| 20260902225338 | 87 | 353 | 2.0 | 2.0 | 0.00 | 0.00 | 0.00 | 81 | 1016.9 |
| 20260902224839 | 87 | 257 | 0.0 | 2.0 | 0.00 | 0.00 | 0.00 | 82 | 1016.9 |
| 20260902224338 | 88 | 121 | 2.0 | 2.0 | 0.00 | 0.00 | 0.00 | 81 | 1016.9 |
| 20260902223838 | 88 | 301 | 0.0 | 0.0 | 0.00 | 0.00 | 0.00 | 81 | 1016.9 |
| 20260902223338 | 88 | 142 | 2.0 | 3.0 | 0.00 | 0.00 | 0.00 | 80 | 1016.6 |
| 20260902222838 | 88 | 119 | 3.0 | 3.0 | 0.00 | 0.00 | 0.00 | 81 | 1016.6 |
| 20260902222339 | 88 | 270 | 0.0 | 3.0 | 0.00 | 0.00 | 0.00 | 81 | 1016.6 |
| 20260902221839 | 89 | 15 | 0.0 | 2.0 | 0.00 | 0.00 | 0.00 | 81 | 1016.6 |
| 20260902221338 | 89 | 246 | 2.0 | 2.0 | 0.00 | 0.00 | 0.00 | 81 | 1016.6 |
| 20260902220838 | 90 | 251 | 0.0 | 2.0 | 0.00 | 0.00 | 0.00 | 80 | 1016.6 |
| 20260902220338 | 90 | 331 | 0.0 | 2.0 | 0.00 | 0.00 | 0.00 | 79 | 1016.6 |
| 20260902215838 | 90 | 232 | 2.0 | 2.0 | 0.00 | 0.00 | 0.00 | 79 | 1016.6 |
| 20260902215338 | 91 | 285 | 2.0 | 2.0 | 0.00 | 0.00 | 0.00 | 78 | 1016.6 |
| 20260902214839 | 90 | 81 | 2.0 | 2.0 | 0.00 | 0.00 | 0.00 | 79 | 1016.9 |
| 20260902214339 | 91 | 309 | 2.0 | 3.0 | 0.00 | 0.00 | 0.00 | 78 | 1016.6 |
| 20260902213838 | 91 | 107 | 3.0 | 3.0 | 0.00 | 0.00 | 0.00 | 77 | 1016.6 |
| 20260902213338 | 91 | 74 | 2.0 | 2.0 | 0.00 | 0.00 | 0.00 | 78 | 1016.6 |
| 20260902212840 | 92 | 30 | 3.0 | 3.0 | 0.00 | 0.00 | 0.00 | 76 | 1016.6 |
| 20260902212338 | 92 | 276 | 2.0 | 2.0 | 0.00 | 0.00 | 0.00 | 78 | 1016.3 |
| 20260902211839 | 92 | 287 | 2.0 | 2.0 | 0.00 | 0.00 | 0.00 | 76 | 1016.3 |